When you browse on this site, cookies collect data to enhance your experience and personalize the content and advertising you see.
Visit our Privacy Policy to learn more. By continuing to use the site, you agree to this use of cookies and data.
  • în România
  • Lista ţărilor
  • Pe 7 zile
  • Temperatura apei
  • Meteo pe hartă
  • Widget-uri
  • user-avatar
    Intrare

    Meteo pe oră la Alicante

    Astăzi, 23 Februarie, Duminică

    Timp Temperatura Precipitaţii Vânt Presiune Umiditate
    00:00 +11°C° 0 mm 0 m/s 774 mmHg 87%
    01:00 +10°C° 0 mm 0 m/s 774 mmHg 86%
    02:00 +10°C° 0 mm 0 m/s 773 mmHg 85%
    03:00 +10°C° 0 mm 0 m/s 773 mmHg 85%
    04:00 +11°C° 0 mm 1 m/s 773 mmHg 84%
    05:00 +10°C° 0 mm 1 m/s 774 mmHg 83%
    06:00 +10°C° 0 mm 1 m/s 774 mmHg 81%
    07:00 +12°C° 0 mm 1 m/s 774 mmHg 72%
    08:00 +14°C° 0 mm 1 m/s 774 mmHg 64%
    09:00 +15°C° 0 mm 0 m/s 774 mmHg 55%
    10:00 +19°C° 0 mm 1 m/s 774 mmHg 48%
    11:00 +20°C° 0 mm 1 m/s 774 mmHg 42%
    12:00 +22°C° 0 mm 1 m/s 774 mmHg 36%
    13:00 +21°C° 0 mm 2 m/s 773 mmHg 35%
    14:00 +23°C° 0 mm 2 m/s 773 mmHg 33%
    15:00 +22°C° 0 mm 3 m/s 772 mmHg 32%
    16:00 +20°C° 0 mm 2 m/s 772 mmHg 43%
    17:00 +17°C° 0 mm 2 m/s 772 mmHg 54%
    18:00 +15°C° 0 mm 1 m/s 772 mmHg 65%
    19:00 +14°C° 0 mm 1 m/s 772 mmHg 67%
    20:00 +14°C° 0 mm 1 m/s 772 mmHg 69%
    21:00 +13°C° 0 mm 1 m/s 772 mmHg 71%
    22:00 +13°C° 0 mm 1 m/s 772 mmHg 69%
    23:00 +13°C° 0 mm 1 m/s 772 mmHg 67%

    Mâine, 24 Februarie, Luni

    Timp Temperatura Precipitaţii Vânt Presiune Umiditate
    00:00 +12°C° 0 mm 1 m/s 772 mmHg 64%
    01:00 +12°C° 0 mm 1 m/s 771 mmHg 63%
    02:00 +12°C° 0 mm 1 m/s 771 mmHg 62%
    03:00 +12°C° 0 mm 1 m/s 770 mmHg 60%
    04:00 +12°C° 0 mm 1 m/s 770 mmHg 59%
    05:00 +11°C° 0 mm 1 m/s 770 mmHg 58%
    06:00 +11°C° 0 mm 1 m/s 770 mmHg 57%
    07:00 +14°C° 0 mm 1 m/s 770 mmHg 48%
    08:00 +16°C° 0 mm 1 m/s 770 mmHg 39%
    09:00 +20°C° 0 mm 1 m/s 769 mmHg 30%
    10:00 +20°C° 0 mm 2 m/s 769 mmHg 27%
    11:00 +21°C° 0 mm 2 m/s 769 mmHg 25%
    12:00 +23°C° 0 mm 2 m/s 769 mmHg 23%
    13:00 +24°C° 0 mm 3 m/s 768 mmHg 23%
    14:00 +24°C° 0 mm 3 m/s 767 mmHg 24%
    15:00 +25°C° 0 mm 3 m/s 766 mmHg 24%
    16:00 +21°C° 0 mm 3 m/s 766 mmHg 33%
    17:00 +19°C° 0 mm 2 m/s 766 mmHg 41%
    18:00 +17°C° 0 mm 2 m/s 766 mmHg 50%
    19:00 +16°C° 0 mm 2 m/s 765 mmHg 48%
    20:00 +16°C° 0 mm 2 m/s 765 mmHg 45%
    21:00 +16°C° 0 mm 2 m/s 765 mmHg 43%
    22:00 +16°C° 0 mm 3 m/s 765 mmHg 41%
    23:00 +16°C° 0 mm 3 m/s 765 mmHg 39%

    Poimâine, 25 Februarie, Marţi

    Timp Temperatura Precipitaţii Vânt Presiune Umiditate
    00:00 +15°C° 0 mm 4 m/s 765 mmHg 37%
    01:00 +15°C° 0 mm 4 m/s 764 mmHg 40%
    02:00 +15°C° 0 mm 4 m/s 764 mmHg 42%
    03:00 +14°C° 0 mm 5 m/s 764 mmHg 45%
    04:00 +14°C° 0 mm 5 m/s 763 mmHg 46%
    05:00 +14°C° 0 mm 5 m/s 763 mmHg 48%
    06:00 +14°C° 0 mm 5 m/s 763 mmHg 50%
    07:00 +15°C° 0 mm 5 m/s 763 mmHg 47%
    08:00 +17°C° 0 mm 5 m/s 763 mmHg 45%
    09:00 +19°C° 0 mm 5 m/s 763 mmHg 43%
    10:00 +21°C° 0 mm 5 m/s 763 mmHg 38%
    11:00 +22°C° 0 mm 6 m/s 763 mmHg 33%
    12:00 +24°C° 0 mm 6 m/s 763 mmHg 28%
    13:00 +24°C° 0 mm 7 m/s 762 mmHg 29%
    14:00 +24°C° 0 mm 7 m/s 762 mmHg 29%
    15:00 +24°C° 0 mm 7 m/s 761 mmHg 30%
    16:00 +23°C° 0 mm 7 m/s 761 mmHg 33%
    17:00 +21°C° 0 mm 6 m/s 761 mmHg 35%
    18:00 +20°C° 0 mm 5 m/s 761 mmHg 38%
    19:00 +19°C° 0 mm 5 m/s 762 mmHg 42%
    20:00 +17°C° 0 mm 5 m/s 762 mmHg 46%
    21:00 +17°C° 0 mm 5 m/s 763 mmHg 50%
    22:00 +16°C° 0 mm 5 m/s 763 mmHg 53%
    23:00 +16°C° 0 mm 5 m/s 763 mmHg 55%

    26 Februarie, Miercuri

    Timp Temperatura Precipitaţii Vânt Presiune Umiditate
    00:00 +15°C° 0 mm 5 m/s 763 mmHg 58%
    01:00 +15°C° 0 mm 5 m/s 763 mmHg 59%
    02:00 +14°C° 0 mm 5 m/s 763 mmHg 60%
    03:00 +14°C° 0 mm 4 m/s 762 mmHg 61%
    04:00 +13°C° 0 mm 5 m/s 762 mmHg 64%
    05:00 +13°C° 0 mm 5 m/s 762 mmHg 67%
    06:00 +13°C° 0 mm 5 m/s 763 mmHg 69%
    07:00 +14°C° 0 mm 5 m/s 763 mmHg 64%
    08:00 +15°C° 0 mm 5 m/s 763 mmHg 58%
    09:00 +16°C° 0 mm 6 m/s 764 mmHg 52%
    10:00 +17°C° 0 mm 6 m/s 764 mmHg 46%
    11:00 +19°C° 0 mm 6 m/s 764 mmHg 40%
    12:00 +21°C° 0 mm 6 m/s 764 mmHg 34%
    13:00 +21°C° 0 mm 6 m/s 764 mmHg 33%
    14:00 +21°C° 0 mm 5 m/s 763 mmHg 31%
    15:00 +21°C° 0 mm 5 m/s 763 mmHg 30%
    16:00 +20°C° 0 mm 4 m/s 763 mmHg 34%
    17:00 +18°C° 0 mm 4 m/s 763 mmHg 38%
    18:00 +17°C° 0 mm 3 m/s 763 mmHg 43%
    19:00 +16°C° 0 mm 3 m/s 764 mmHg 44%
    20:00 +14°C° 0 mm 3 m/s 764 mmHg 46%
    21:00 +14°C° 0 mm 2 m/s 765 mmHg 48%
    22:00 +14°C° 0 mm 2 m/s 765 mmHg 49%
    23:00 +13°C° 0 mm 2 m/s 765 mmHg 49%

    27 Februarie, Joi

    Timp Temperatura Precipitaţii Vânt Presiune Umiditate
    00:00 +13°C° 0 mm 2 m/s 765 mmHg 50%
    01:00 +11°C° 0 mm 3 m/s 765 mmHg 57%
    02:00 +11°C° 0 mm 3 m/s 765 mmHg 64%
    03:00 +11°C° 0 mm 3 m/s 765 mmHg 72%
    04:00 +11°C° 0 mm 3 m/s 765 mmHg 77%
    05:00 +12°C° 0 mm 2 m/s 765 mmHg 83%
    06:00 +10°C° 0 mm 2 m/s 765 mmHg 88%
    07:00 +13°C° 0 mm 2 m/s 765 mmHg 84%
    08:00 +14°C° 0 mm 2 m/s 766 mmHg 79%
    09:00 +15°C° 0 mm 1 m/s 766 mmHg 74%
    10:00 +16°C° 0 mm 1 m/s 766 mmHg 67%
    11:00 +18°C° 0 mm 2 m/s 766 mmHg 59%
    12:00 +19°C° 0 mm 2 m/s 765 mmHg 52%
    13:00 +20°C° 0 mm 2 m/s 765 mmHg 49%
    14:00 +20°C° 0 mm 3 m/s 764 mmHg 47%
    15:00 +21°C° 0 mm 3 m/s 764 mmHg 44%
    16:00 +19°C° 0 mm 3 m/s 764 mmHg 53%
    17:00 +17°C° 0 mm 3 m/s 764 mmHg 61%
    18:00 +16°C° 0 mm 2 m/s 764 mmHg 70%
    19:00 +15°C° 0 mm 2 m/s 764 mmHg 71%
    20:00 +15°C° 0 mm 2 m/s 764 mmHg 73%
    21:00 +14°C° 0 mm 1 m/s 765 mmHg 75%
    22:00 +14°C° 0 mm 1 m/s 764 mmHg 73%
    23:00 +14°C° 0 mm 1 m/s 764 mmHg 70%

    28 Februarie, Vineri

    Timp Temperatura Precipitaţii Vânt Presiune Umiditate
    00:00 +14°C° 0 mm 1 m/s 764 mmHg 67%
    01:00 +13°C° 0 mm 1 m/s 764 mmHg 67%
    02:00 +13°C° 0 mm 1 m/s 763 mmHg 68%
    03:00 +13°C° 0 mm 1 m/s 763 mmHg 68%
    04:00 +13°C° 0 mm 1 m/s 763 mmHg 69%
    05:00 +12°C° 0 mm 1 m/s 762 mmHg 71%
    06:00 +12°C° 0 mm 1 m/s 762 mmHg 72%
    07:00 +14°C° 0 mm 1 m/s 762 mmHg 63%
    08:00 +16°C° 0 mm 1 m/s 763 mmHg 54%
    09:00 +20°C° 0 mm 1 m/s 763 mmHg 45%
    10:00 +20°C° 0 mm 2 m/s 762 mmHg 42%
    11:00 +21°C° 0 mm 2 m/s 762 mmHg 39%
    12:00 +23°C° 0 mm 2 m/s 762 mmHg 35%
    13:00 +22°C° 0 mm 3 m/s 761 mmHg 35%
    14:00 +24°C° 0 mm 3 m/s 760 mmHg 34%
    15:00 +23°C° 0 mm 4 m/s 760 mmHg 34%
    16:00 +21°C° 0 mm 3 m/s 760 mmHg 41%
    17:00 +19°C° 0 mm 3 m/s 760 mmHg 49%
    18:00 +17°C° 0 mm 3 m/s 759 mmHg 56%
    19:00 +17°C° 0 mm 3 m/s 760 mmHg 53%
    20:00 +17°C° 0 mm 3 m/s 760 mmHg 50%
    21:00 +17°C° 0 mm 3 m/s 760 mmHg 47%
    22:00 +15°C° 0 mm 4 m/s 760 mmHg 50%
    23:00 +15°C° 0 mm 4 m/s 760 mmHg 53%
    Arată mai mult